Voltar ao catálogo

STARLINK-36540

AtivoComunicaçõesVLEO
NORAD 67511·PAYLOAD·🇺🇸 United States

Lançado Jan 18, 2026 de Cape Canaveral Space Force Station

Loading…

Próximas Passagens (próximas 24 horas)

TLE

AtualizadoSource: CelesTrak SupGP

Época: Sep 14, 2026, 21:02 UTC

1 67511C 26012U   26257.87687500 -.00028219  00000+0 -10221-2 0  2572
2 67511  43.0019 326.2978 0001419 268.3091  34.3928 15.27592440    19

Acompanhe STARLINK-36540 em tempo real com AllMySat

Download on the App Store